Regional Weather Roundup
Issued by NWS

Home | Current Version | Previous Version | Graphics & Text | Print | Product List | Glossary On
Versions: 1 2 3 4 5 6 7 8 9 10 11 12 13 14 15 16 17 18 19 20 21 22 23 24 25 26 27 28 29 30 31 32 33 34 35 36 37 38 39 40 41 42 43 44 45 46 47 48 49 50
000
ASUS45 KPSR 190210
RWRAZ

ARIZONA REGIONAL HOURLY WEATHER ROUNDUP
NATIONAL WEATHER SERVICE PHOENIX AZ
700 PM MST THU DEC 18 2014

NOTE: FAIR INDICATES FEW OR NO CLOUDS BELOW 12,000 FEET WITH NO
SIGNIFICANT WEATHER AND/OR OBSTRUCTIONS TO VISIBILITY.

AZZ001>003-036-190300-
NORTHWEST ARIZONA

CITY           SKY/WX    TMP DP  RH WIND       PRES   REMARKS
BULLHEAD CITY  CLEAR     57  41  54 N8        30.18R
KINGMAN        CLEAR     39  36  89 NE8       30.18R WCI  33
$$

AZZ004>008-015-016-018-190300-
NORTH CENTRAL ARIZONA

CITY           SKY/WX    TMP DP  RH WIND       PRES   REMARKS
GRAND CANYON   CLEAR     28  26  92 CALM      30.17R
PRESCOTT       PTCLDY    38  29  70 CALM      30.16R
FLAGSTAFF      PTCLDY    27  24  89 E3        30.16R
PAYSON         PTCLDY    37  34  87 CALM      30.16R
PAGE           PTCLDY    40  31  70 S3        30.15R
$$

AZZ009>014-017-190300-
NORTHEAST ARIZONA

CITY           SKY/WX    TMP DP  RH WIND       PRES   REMARKS
WINSLOW        CLEAR     32  29  88 NW6       30.17R WCI  26
SAINT JOHNS    PTCLDY    33  31  92 CALM      30.15R
WINDOW ROCK    CLOUDY    32  27  81 CALM      30.15R
SHOW LOW       PTCLDY    28  27  93 CALM      30.17R
$$

AZZ023-190300-
GREATER PHOENIX AREA

CITY           SKY/WX    TMP DP  RH WIND       PRES   REMARKS
PHOENIX        CLEAR     57  43  59 W7        30.12R
BUCKEYE          N/A     54  46  76 CALM      30.15R
GLENDALE       PTCLDY    54  45  71 CALM      30.15R
LUKE AFB       CLEAR     54  44  70 SW2       30.13R
DEER VALLEY    CLEAR     53  42  66 CALM      30.13R
SCOTTSDALE     CLEAR     55  40  56 W3        30.14R
MESA-FALCON    CLEAR     54  41  62 W7        30.12
MESA-GATEWAY   CLEAR     52  45  76 SW5       30.14R
CHANDLER       CLEAR     55  45  67 CALM      30.14R
$$

AZZ027-028-190300-
SOUTHWEST MARICOPA COUNTY AND PINAL COUNTY

CITY           SKY/WX    TMP DP  RH WIND       PRES   REMARKS
CASA GRANDE    CLEAR     52  45  76 CALM      30.14R
GILA BEND      CLEAR     54  47  77 S3        30.15R
$$

AZZ503-504-507>509-190300-
SOUTHEAST ARIZONA

CITY           SKY/WX    TMP DP  RH WIND       PRES   REMARKS
TUCSON         CLEAR     51  39  63 NW3       30.15R
DAVIS-MONTHAN  CLEAR     48  40  73 W2        30.13R
RYAN FIELD       N/A     52  46  82 NW5       30.15R
NOGALES        CLEAR     42  38  85 NE5       30.13R
SIERRA VISTA   PTCLDY    39  37  93 W6        30.15R WCI  35
DOUGLAS        CLOUDY    45  39  79 N7        30.15R
SAFFORD        CLOUDY    46  43  89 W7        30.13R
$$

AZZ020-021-025-026-031-190300-
SOUTHWEST ARIZONA

CITY           SKY/WX    TMP DP  RH WIND       PRES   REMARKS
YUMA           PTCLDY   N/A N/A N/A N5        30.15R
$$

CAZ031-033-041-043-047-048-061-190300-
SOUTHERN CALIFORNIA

CITY           SKY/WX    TMP DP  RH WIND       PRES   REMARKS
DOWNTOWN L.A.  PTCLDY    57  49  74 CALM      30.17R
L.A. AIRPORT   PTCLDY    57  52  83 W5        30.18R
SAN DIEGO      MOCLDY    62  50  64 NW3       30.19R
BURBANK        CLEAR     57  46  66 CALM      30.17R
ONTARIO        MOCLDY    56  45  66 W5        30.17R
RIVERSIDE      CLEAR     56  45  66 CALM      30.17R
PALM SPRINGS   CLEAR     59  40  49 CALM      30.17R
EL CENTRO NAS  MOCLDY    57  43  59 SE3       30.15R
IMPERIAL       CLEAR     59  42  53 CALM      30.15R
BLYTHE         CLEAR     58  45  62 N3        30.16R
NEEDLES        CLEAR     56  41  57 NW6       30.17R
$$

NVZ020-UTZ003-190300-
SOUTHERN NEVADA-UTAH

CITY           SKY/WX    TMP DP  RH WIND       PRES   REMARKS
LAS VEGAS      CLEAR     52  38  58 S6        30.15R
SALT LAKE CITY MOCLDY    36  31  82 SW5       30.17R WCI  32
$$

NMZ009-TXZ055-190300-
NEW MEXICO-WEST TEXAS

CITY           SKY/WX    TMP DP  RH WIND       PRES   REMARKS
ALBUQUERQUE    CLOUDY    40  28  62 NW3       30.12R
EL PASO        CLOUDY    48  40  73 NW5       30.10R
$$


........................KEY........................
SKY/WX - SKY CONDITION/WEATHER
TMP    - TEMPERATURE IN FAHRENHEIT
DP     - DEW POINT IN FAHRENHEIT
RH     - RELATIVE HUMIDITY IN PERCENT
WIND   - DIRECTION AND SPEED IN MILES PER HOUR (MPH)
VRB    - VARIABLE WIND DIRECTION
PRES   - MEAN SEA LEVEL PRESSURE IN INCHES OF MERCURY
         F - FALLING PRESSURE   R - RISING PRESSURE
         S - STEADY PRESSURE
VSB    - VISIBILITY IN MILES
HX     - HEAT INDEX IN FAHRENHEIT
WCI    - WIND CHILL INDEX IN FAHRENHEIT
TC     - TEMPERATURE IN CELSIUS WHICH IS ALSO KNOWN AS
         TEMPERATURE IN CENTIGRADE
AFB    - AIR FORCE BASE
         LUKE AFB IS LUKE AIR FORCE BASE
         DAVIS-MONTHAN IS DAVIS-MONTHAN AIR FORCE BASE
NAS    - NAVAL AIR STATION
         EL CENTRO NAS IS EL CENTRO NAVAL AIR STATION
N/A    - NOT AVAILABLE


USA.gov is the U.S. government's official web portal to all federal, state and local government web resources and services.